Moses Lake, WA

3:07 AM PDT on May 28, 2017 (GMT -0700)
Grant County International

Weather History for KMWH - December, 2014

Change the Weather History Date:

Sunday, December 7, 2014

  Actual Average Record
Temperature  
Mean Temperature 39 °F 30 °F  
Max Temperature 44 °F 36 °F 56 °F (1979)
Min Temperature 33 °F 24 °F 0 °F (2013)
Degree Days  
Heating Degree Days 26 35  
Month to date heating degree days 245 240  
Since 1 July heating degree days 1447 1701  
Cooling Degree Days 0 0  
Month to date cooling degree days 0 0  
Year to date cooling degree days 952 615  
Moisture  
Dew Point 35 °F    
Average Humidity 91    
Maximum Humidity 100    
Minimum Humidity 82    
Precipitation  
Precipitation 0.00 in 0.03 in 0.60 in (2015)
Month to date precipitation 0.16 0.25  
Year to date precipitation 6.16 7.92  
Sea Level Pressure  
Sea Level Pressure 30.31 in    
Wind  
Wind Speed 9 mph (North)    
Max Wind Speed 14 mph    
Max Gust Speed 16 mph    
Visibility 6 miles    
Events Fog    
T = Trace of Precipitation, MM = Missing Value Source: NWS Daily Summary

Daily Weather History Graph

Daily Weather History Graph

Search for Another Location

Airport or City:

Trip Planner

Search our weather history database for the weather conditions in past years. The results will help you decide how hot, cold, wet, or windy it might be!

Date:

Astronomy

Dec. 07, 2014 Rise Set
Actual Time 7:29 AM PST 4:07 PM PST
Civil Twilight 6:54 AM PST 4:42 PM PST
Nautical Twilight 6:16 AM PST 5:21 PM PST
Astronomical Twilight 5:39 AM PST 5:58 PM PST
Moon 5:44 PM PST (12/7) 8:13 AM PST (12/7)
Length of Visible Light 9h 48m
Length of Day
8h 37m
Full, 98% of the Moon is Illuminated
Dec 7
Full
Dec 14
Last Quarter
Dec 21
New
Dec 28
First Quarter
Jan 4
Full

Hourly Weather History & Observations

Time (PST) Temp. Windchill Dew Point Humidity Pressure Visibility Wind Dir Wind Speed Gust Speed Precip Events Conditions
12:33 AM 34.0 °F 28.0 °F 33.1 °F 96% 30.30 in 0.8 mi North 6.9 mph - N/A   Mist
12:52 AM 34.0 °F 29.8 °F 34.0 °F 100% 30.33 in 0.5 mi North 4.6 mph - N/A Fog Fog
1:34 AM 35.1 °F 28.6 °F 34.0 °F 96% 30.30 in 1.8 mi North 8.1 mph - N/A   Overcast
1:41 AM 35.1 °F 28.6 °F 34.0 °F 96% 30.30 in 2.5 mi North 8.1 mph - N/A   Overcast
1:52 AM 35.1 °F 28.6 °F 34.0 °F 96% 30.34 in 2.5 mi North 8.1 mph - N/A   Overcast
2:02 AM 35.1 °F 29.3 °F 34.0 °F 96% 30.31 in 4.0 mi North 6.9 mph - N/A   Overcast
2:52 AM 35.1 °F 29.3 °F 34.0 °F 96% 30.35 in 5.0 mi North 6.9 mph - N/A   Overcast
3:52 AM 35.1 °F 29.3 °F 34.0 °F 96% 30.35 in 9.0 mi NW 6.9 mph - N/A   Overcast
4:52 AM 35.1 °F 29.3 °F 34.0 °F 96% 30.35 in 6.0 mi North 6.9 mph - N/A   Overcast
5:27 AM 35.1 °F 29.3 °F 34.0 °F 96% 30.32 in 4.0 mi North 6.9 mph - N/A   Overcast
5:47 AM 35.6 °F 29.2 °F 33.8 °F 93% 30.32 in 1.8 mi North 8.1 mph - N/A   Overcast
5:52 AM 35.1 °F 29.3 °F 34.0 °F 96% 30.36 in 1.0 mi North 6.9 mph - N/A   Overcast
6:00 AM 35.1 °F 30.1 °F 34.0 °F 96% 30.32 in 0.5 mi North 5.8 mph - N/A Fog Fog
6:52 AM 35.1 °F 29.3 °F 34.0 °F 96% 30.36 in 0.5 mi North 6.9 mph - N/A Fog Fog
6:59 AM 35.1 °F 30.1 °F 34.0 °F 96% 30.33 in 1.0 mi NNW 5.8 mph - N/A   Overcast
7:52 AM 35.1 °F 27.9 °F 35.1 °F 100% 30.37 in 0.8 mi North 9.2 mph - N/A   Mist
8:29 AM 36.0 °F 29.6 °F 35.1 °F 97% 30.32 in 1.0 mi North 8.1 mph - N/A   Overcast
8:52 AM 36.0 °F 30.3 °F 36.0 °F 100% 30.37 in 2.0 mi North 6.9 mph - N/A   Overcast
8:59 AM 37.0 °F 31.0 °F 36.0 °F 96% 30.33 in 3.0 mi North 8.1 mph - N/A   Overcast
9:07 AM 37.0 °F 31.6 °F 36.0 °F 96% 30.33 in 4.0 mi North 6.9 mph - N/A   Overcast
9:52 AM 37.9 °F 32.1 °F 37.0 °F 97% 30.37 in 7.0 mi North 8.1 mph - N/A   Overcast
10:52 AM 39.9 °F 35.1 °F 37.9 °F 93% 30.35 in 9.0 mi NNE 6.9 mph - N/A   Overcast
11:52 AM 43.0 °F 38.2 °F 39.9 °F 89% 30.33 in 10.0 mi North 8.1 mph - N/A   Overcast
12:10 PM 43.0 °F 37.7 °F 39.9 °F 89% 30.30 in 10.0 mi North 9.2 mph - N/A   Overcast
12:31 PM 44.1 °F 38.6 °F 39.9 °F 85% 30.29 in 10.0 mi North 10.4 mph - N/A   Overcast
12:52 PM 44.1 °F 38.1 °F 39.9 °F 85% 30.31 in 10.0 mi North 11.5 mph - N/A   Overcast
1:52 PM 43.0 °F 36.4 °F 37.9 °F 82% 30.31 in 10.0 mi North 12.7 mph - N/A   Overcast
2:52 PM 43.0 °F 36.4 °F 37.9 °F 82% 30.30 in 10.0 mi North 12.7 mph - N/A   Overcast
3:15 PM 42.1 °F 36.1 °F 37.9 °F 85% 30.26 in 10.0 mi North 10.4 mph - N/A   Overcast
3:52 PM 39.9 °F 33.9 °F 37.0 °F 89% 30.30 in 10.0 mi North 9.2 mph - N/A   Scattered Clouds
4:52 PM 37.0 °F 30.4 °F 34.0 °F 89% 30.30 in 10.0 mi North 9.2 mph - N/A   Scattered Clouds
5:04 PM 36.0 °F 29.0 °F 34.0 °F 93% 30.26 in 10.0 mi North 9.2 mph - N/A   Mostly Cloudy
5:31 PM 35.1 °F 27.9 °F 33.1 °F 92% 30.26 in 10.0 mi NNW 9.2 mph - N/A   Scattered Clouds
5:41 PM 36.0 °F 29.0 °F 34.0 °F 93% 30.26 in 10.0 mi NNW 9.2 mph - N/A   Mostly Cloudy
5:52 PM 36.0 °F 28.5 °F 34.0 °F 93% 30.30 in 10.0 mi NNW 10.4 mph - N/A   Overcast
6:52 PM 37.0 °F 29.3 °F 34.0 °F 89% 30.28 in 10.0 mi North 11.5 mph - N/A   Overcast
7:52 PM 37.0 °F 29.8 °F 34.0 °F 89% 30.28 in 10.0 mi North 10.4 mph - N/A   Overcast
8:52 PM 36.0 °F 29.6 °F 34.0 °F 93% 30.28 in 10.0 mi North 8.1 mph - N/A   Scattered Clouds
9:52 PM 36.0 °F 28.5 °F 34.0 °F 93% 30.26 in 10.0 mi North 10.4 mph - N/A   Clear
10:52 PM 35.1 °F 29.3 °F 33.1 °F 92% 30.26 in 10.0 mi NNW 6.9 mph - N/A   Clear
11:52 PM 34.0 °F 27.2 °F 32.0 °F 92% 30.25 in 10.0 mi North 8.1 mph - N/A   Clear